Location: Dal�� Lhota
(48.7500°N, 14.0167°E)
Time: 09:24:51
(UTC+00:00)

Explorer 7 - Pass Details

Date: 10 August 2021
Orbit: 484 x 676 km, 50.3° (Epoch: 21 September)

Event Time Altitude Azimuth Distance (km) Brightness Sun altitude
Rises 02:33:48 0° 259° (W) 2,543 - -11.4°
Reaches altitude 10° 02:35:57 10° 261° (W) 1,666 - -11.1°
Exits shadow 02:36:24 13° 262° (W) 1,487 8.5 -11.1°
Maximum altitude 02:39:42 79° 348° (NNW) 504 6.6 -10.6°
Drops below altitude 10° 02:43:33 10° 76° (ENE) 1,712 10.5 -10.2°
Sets 02:45:48 0° 78° (ENE) 2,621 11.6 -9.9°
